Regional Weather Roundup
Issued by NWS

Home | Current Version | Previous Version | Graphics & Text | Print | Product List | Glossary On
Versions: 1 2 3 4 5 6 7 8 9 10 11 12 13 14 15 16 17 18 19 20 21 22 23 24 25 26 27 28 29 30 31 32 33 34 35 36 37 38 39 40 41 42 43 44 45 46 47 48 49 50
000
ASUS45 KBOU 260007
RWRCO

WEATHER ROUNDUP FOR COLORADO
NATIONAL WEATHER SERVICE DENVER/BOULDER CO
600 PM MDT WED MAR 25 2015

NOTE: "FAIR" INDICATES FEW OR NO CLOUDS BELOW 12000 FEET WITH NO
SIGNIFICANT WEATHER AND/OR OBSTRUCTIONS TO VISIBILITY.

COZ001>005-013-030-031-260100-
...NORTHWEST COLORADO...

CITY           SKY/WX    TMP DP  RH WIND       PRES   REMARKS
CRAIG          PTSUNNY   44  15  31 W14       30.25S
HAYDEN         FAIR      39  25  56 SW10G16   30.25S
MEEKER         FAIR      45  17  32 NW8       30.25S
MOUNT WERNER   NOT AVBL
STEAMBOAT SPGS CLOUDY    36  22  58 W7        30.26R
WALDEN         FAIR      32  23  69 NW17      30.23S WCI  21
$$

COZ006>008-011-260100-
...WEST CENTRAL VALLEYS...

CITY           SKY/WX    TMP DP  RH WIND       PRES   REMARKS
GRAND JUNCTION FAIR      52  13  21 NE9       30.22R
MONTROSE       FAIR      52   7  16 NW12      30.22R
EAGLE          MOSUNNY   45  12  26 NW5       30.25R
RIFLE          FAIR      47  16  29 N10       30.25S
DELTA          FAIR      56  11  16 NW8       30.21R
NUCLA          FAIR      52   3  14 N15       30.25R
$$

COZ017>023-064>068-260100-
...SOUTHWEST COLORADO...

CITY           SKY/WX    TMP DP  RH WIND       PRES   REMARKS
DURANGO        FAIR      55   8  15 NW15      30.05R
CORTEZ         FAIR      54  10  17 NW14G28   30.15R
PAGOSA SPRINGS FAIR      49  -1  12 N8G17     30.12R
TELLURIDE      FAIR      35  11  36 NW5       30.24R WCI  31
WOLF CREEK PAS FAIR      23   3  42 NE31      30.22R WCI   5
$$

COZ009-010-012-014-032>034-037-058>063-260100-
...CENTRAL COLORADO...

CITY           SKY/WX    TMP DP  RH WIND       PRES   REMARKS
ASPEN          FAIR      37  20  50 NW5       30.23R
BUENA VISTA    FAIR      40   1  19 NW23G30   30.19R
COPPER MTN     FAIR      23  10  58 W21G32    30.23R WCI   8
BERTHOUD PASS  SNOW      10   3  72 MISG      30.19F VSB 1/2
COTTONWOOD PAS FAIR      34  -6  18 NW7       30.21R WCI  28
GUNNISON       FAIR      41   7  24 N13       30.23R
KREMMLING      FAIR      37  18  44 NW9       30.26R
LEADVILLE      FAIR      27   4  37 N13G23    30.22R WCI  16
SALIDA         FAIR      45   1  16 N12G17    30.25R
SUNLIGHT       FAIR      28  18  64 W6        30.31R WCI  22
WILKERSON PASS LGT SNOW  19  16  86 N8        30.24R WCI   9
$$

COZ069>075-260100-
...SAN LUIS VALLEY/SANGRE DE CRISTO MOUNTAINS...

CITY           SKY/WX    TMP DP  RH WIND       PRES   REMARKS
ALAMOSA        FAIR      46   2  16 N15G28    30.14R
LA VETA PASS   SNOW      21  19  93 MISG      30.21R VSB 1/2
SAGUACHE       FAIR      43   5  21 NW18G35   30.16R
$$

COZ035-036-038>040-260100-
...NORTHERN COLORADO FRONT RANGE...

CITY           SKY/WX    TMP DP  RH WIND       PRES   REMARKS
DENVER INTL AP PTSUNNY   44  30  57 W10       30.21R
DMNS CITY PARK   N/A     44  30  59 S8        30.21S
AURORA         PTSUNNY   39  32  75 W6        30.22S
FRONT RANGE AP PTSUNNY  N/A N/A N/A W5        30.22S
ERIE MUNI ARPT FAIR      45  27  49 S3        30.21F
BOULDER MUN AP FAIR      45  30  57 CALM      30.21S
CENTENNIAL     PTSUNNY   38  30  73 SW6       30.22S
BROOMFIELD     PTSUNNY   43  28  56 CALM      30.22S
FORT COLLINS   FAIR      43  28  56 E12       30.21S
LONGMONT       FAIR      46  31  56 SW5       30.23R
$$

COZ041-046-047-076>085-087-088-260100-
...PIKES PEAK/PALMER DIVIDE AND SOUTHERN FOOTHILLS...

CITY           SKY/WX    TMP DP  RH WIND       PRES   REMARKS
COLO. SPRINGS  FAIR      41  22  46 N18       30.23R
A. F. ACADEMY  SUNNY     36  25  64 N13       30.22R
ELLICOTT       FAIR     N/A N/A N/A N17       30.22R
FALCON         FAIR      37  26  65 N9        30.24R
FORT CARSON    FAIR      41  25  53 NE5       30.22R
LIMON          FAIR      38  29  70 N12       30.21R
MONUMENT HILL  FAIR      32  25  74 NW7       30.21S WCI  26
TRINIDAD       CLOUDY    35  31  85 N16G22    30.25R WCI  25
$$

COZ042>045-048>051-090-091-260100-
...NORTHEAST COLORADO...

CITY           SKY/WX    TMP DP  RH WIND       PRES   REMARKS
GREELEY ARPT   PTSUNNY   43  28  56 NW5       30.22R
AKRON          PTSUNNY   46  28  49 N12       30.18S
BURLINGTON     FAIR      41  32  70 N13       30.20R
WRAY           FAIR      48  26  42 N12       30.20S
STERLING       CLOUDY    48  27  43 N9        30.17S
HOLYOKE        FAIR      52  23  32 N13       30.19R
FORT MORGAN    PTSUNNY   47  13  25 N9        30.19S
$$

COZ086-089-092>099-260100-
...SOUTHEAST COLORADO...

CITY           SKY/WX    TMP DP  RH WIND       PRES   REMARKS
PUEBLO         FAIR      45  29  53 NE8       30.23S
LA JUNTA       PTSUNNY   43  34  70 N13       30.23S
LAMAR          CLOUDY    42  36  79 N14       30.21R
SPRINGFIELD      N/A     34  33  96 N20       30.20R WCI  23
$$



USA.gov is the U.S. government's official web portal to all federal, state and local government web resources and services.